Regional Weather Roundup
Issued by NWS

Home | Current Version | Previous Version | Graphics & Text | Print | Product List | Glossary Off
Versions: 1 2 3 4 5 6 7 8 9 10 11 12 13 14 15 16 17 18 19 20 21 22 23 24 25 26 27 28 29 30 31 32 33 34 35 36 37 38 39 40 41 42 43 44 45 46 47 48 49 50

000
ASUS43 KMKX 312211
RWRWI

WISCONSIN REGIONAL WEATHER ROUNDUP
NATIONAL WEATHER SERVICE MILWAUKEE/SULLIVAN WI
500 PM CDT FRI JUL 31 2015

NOTE: "FAIR" INDICATES FEW OR NO CLOUDS BELOW 12,000 FEET WITH NO
SIGNIFICANT WEATHER AND/OR OBSTRUCTIONS TO VISIBILITY.

WIZ001-002-006>008-014>016-023>028-312300-
NORTHWEST WISCONSIN

CITY           SKY/WX    TMP DP  RH WIND       PRES   REMARKS
SUPERIOR ARPT  MOSUNNY   79  53  40 W14G22    29.91F
ASHLAND        PTSUNNY   69  60  73 NE15      29.93S
HAYWARD        MOSUNNY   78  50  37 VRB3G21   29.95F
SIREN          MOSUNNY   79  47  32 NW16G23   29.97F
CUMBERLAND     MOSUNNY   75  46  35 W17G25    29.98S
RICE LAKE      MOSUNNY   75  51  43 NW13G18   29.99S
CHETEK         MOSUNNY   77  52  41 W8        29.97F
LADYSMITH      PTSUNNY   75  53  45 W16       29.98S
EAU CLAIRE     MOSUNNY   80  50  34 NW18G28   29.97F HX  80
MENOMONIE      MOSUNNY   81  46  29 W16G24    29.99S
NEW RICHMOND   SUNNY     78  47  33 W15       30.00F
OSCEOLA        MOSUNNY   78  47  33 NW15G21   30.02S
$$

WIZ003>005-009-010-017-018-312300-
NORTH CENTRAL WISCONSIN

CITY           SKY/WX    TMP DP  RH WIND       PRES   REMARKS
MANITOWISH WTR PTSUNNY   64  57  80 N9        29.95R
ARBOR VITAE    MOSUNNY   73  53  49 N21G32    29.96R
WOODRUFF       MOSUNNY   73  53  49 N21G32    29.96R
RHINELANDER    CLOUDY    73  51  46 NW9       29.95R
EAGLE RIVER    MOSUNNY   71  48  44 NW9G21    29.93R
LAND O LAKES   MOSUNNY   71  47  42 NW12G24   29.94R
PHILLIPS       PTSUNNY   73  52  47 NW9G18    29.94F
TOMAHAWK       CLOUDY    73  51  46 W13       29.95S
MEDFORD        PTSUNNY   74  51  44 W20G28    29.96S
MERRILL        NOT AVBL
$$

WIZ029-030-035-036-043>047-312300-
CENTRAL WISCONSIN

CITY           SKY/WX    TMP DP  RH WIND       PRES   REMARKS
WAUSAU         MOSUNNY   79  48  33 W18       29.92F
MOSINEE        NOT AVBL
MARSHFIELD     PTSUNNY   79  50  36 NW17G26   29.96F
STEVENS POINT  MOSUNNY   76  51  41 W12G25    29.95S
WAUPACA        MOSUNNY   82  50  32 W18       29.93R HX  81
WAUTOMA        MOSUNNY   83  48  29 W18G28    29.94S HX  81
WISC RAPIDS    MOSUNNY   80  48  32 NW21G30   29.97S
CAMP DOUGLAS   MOSUNNY   80  53  40 W17G24    29.97S HX  80
$$

WIZ011>013-019>022-031-037>040-048>050-312300-
NORTHEAST WISCONSIN

CITY           SKY/WX    TMP DP  RH WIND       PRES   REMARKS
ANTIGO         PTSUNNY   76  49  37 NW16G24   29.93S
SHAWANO        MOSUNNY   81  50  33 NW12      29.90S HX  80
OCONTO         PTSUNNY   82  52  35 NW13G24   29.86S HX  81
STURGEON BAY   MOSUNNY   79  54  41 NW12G26   29.89R
GREEN BAY      SUNNY     81  54  39 W15       29.88S HX  81
MANITOWOC      MOSUNNY   82  51  34 MISG      29.88F HX  81
APPLETON       PTSUNNY   81  46  30 W16G25    29.91F HX  80
CLINTONVILLE   SUNNY     81  45  28 NW16G22   29.90S
OSHKOSH        MOSUNNY   80  52  37 NW18G24   29.91S HX  80
$$

WIZ032>034-041-042-053>061-312300-
SOUTHWEST WISCONSIN

CITY           SKY/WX    TMP DP  RH WIND       PRES   REMARKS
LA CROSSE      SUNNY     83  51  33 NW13      29.98F HX  81
SPARTA         MOSUNNY   82  45  27 NW13G23   29.99S HX  80
VIROQUA        SUNNY     78  49  35 NW15      30.02S
BOSCOBEL       SUNNY     85  53  33 W9        30.00S HX  83
PRAIRIE DU CHI SUNNY     83  44  25 NW14G21   30.00S HX  81
PLATTEVILLE    SUNNY     82  52  35 NW13      30.00F HX  81
$$

WIZ056-057-062-063-064-067-068-312300-
SOUTH CENTRAL WISCONSIN

CITY           SKY/WX    TMP DP  RH WIND       PRES   REMARKS
REEDSBURG      PTSUNNY   81  49  32 NW15G21   29.97S HX  80
BARABOO/DELLS  MOSUNNY   81  42  25 NW17G24   29.97S
LONE ROCK      SUNNY     82  50  32 NW15      29.98F HX  81
MINERAL POINT  SUNNY     81  45  28 NW13G20   30.01S
MADISON        MOSUNNY   80  49  33 NW12G26   29.96S
MIDDLETON      SUNNY     82  44  26 NW10G17   29.98S HX  80
WATERTOWN      PTSUNNY   80  53  39 W12G18    29.95S HX  80
MONROE         SUNNY     81  48  32 W18G24    29.98F HX  80
JANESVILLE     SUNNY     84  46  26 NW17G23   29.96S HX  82
$$

WIZ051-052-058>065-066-070>072-312300-
SOUTHEAST WISCONSIN

CITY           SKY/WX    TMP DP  RH WIND       PRES   REMARKS
MILWAUKEE      MOSUNNY   82  47  29 NW18G28   29.93S HX  80
WAUKESHA       MOSUNNY   79  48  34 NW12      29.95S
MILWAUKEE/TIMM MOSUNNY   81  43  26 NW20G26   29.93F
RACINE         MOSUNNY   83  49  30 W15G24    29.94S HX  81
BURLINGTON     MOSUNNY   81  47  30 NW15G25   29.95S HX  80
KENOSHA        SUNNY     81  50  33 W16G28    29.94S HX  80
FOND DU LAC    MOSUNNY   81  51  35 W15       29.92F HX  80
SHEBOYGAN      SUNNY     81  52  36 NW15G26   29.90S HX  80
WEST BEND      MOSUNNY   81  43  26 W14G23    29.93S
JUNEAU         MOSUNNY   79  53  40 W10       29.95S
$$

LSZ147-162-312300-
LAKE SUPERIOR

STATION/POSITION TIME  TEMP    WIND        PRES    WAVE
                       AIR SEA DIR/SP/G            HT/PER
                 (UTC) (F)     (DEG/KT/KT) (MB)    (FT/S)
W MID LAKE BUOY  2150   60 54  250/ 14/ 16 1011.3F   1/ 4
DEVILS ISLAND    2200   65     210/  8/ 11 1012.4F
PORT WING        2100   72     280/  7/ 10 1012.9F
SAXON HARBOR     2109   67                 1014.6
$$

LMZ867-665-643>646-312300-
LAKE MICHIGAN

STATION/POSITION TIME  TEMP    WIND        PRES    WAVE
                       AIR SEA DIR/SP/G            HT/PER
                 (UTC) (F)     (DEG/KT/KT) (MB)    (FT/S)
CHAMBERS ISLAND  2100   73     320/ 11/ 15 1010.8S
S GREEN BAY BUOY 2200   75 72  310/ 14/ 19 1012.5F
N MID LAKE BUOY  2150   71 69  280/ 14/ 16 1009.9R   2/ 3
NORTHPORT PIER   2100   74     290/  8/ 15 1010.5S
SISTER BAY       2114   76     330/ 17/ 18   N/A
ALGOMA LAKESHORE 2112          330/ 10/ 14   N/A
KEWAUNEE LAKESHO 2100   81     300/ 13/ 19 1010.9F
SHEBOYGAN LAKESH 2200   80     290/ 14/ 19 1012.3S
PORT WASHINGTON  2100   83     300/  7/ 16 1013.2F
ATWATER BUOY     2200   73 66  310/ 10/ 14 1014.4F
MILWAUKEE LAKESH 2100   80     290/ 15/ 23   N/A
KENOSHA   LAKESH 2200   81     310/ 14/ 23 1012.9S
$$

TC  - TEMPERATURE IN CELSIUS
VSB - VISIBILITY IN STATUTE MILES
WCI - WIND CHILL INDEX
HX  - HEAT INDEX



USA.gov is the U.S. government's official web portal to all federal, state and local government web resources and services.